Weather History for KMTJ - June, 2012

Change the Weather History Date:

Sunday, June 17, 2012

  Actual Average Record
Temperature  
Mean Temperature 74 °F 69 °F  
Max Temperature 94 °F 86 °F 95 °F (2002)
Min Temperature 54 °F 52 °F 44 °F (1998)
Degree Days  
Heating Degree Days 0 1  
Month to date heating degree days 6 35  
Since 1 June heating degree days 6 35  
Since 1 July heating degree days 5665 6199  
Cooling Degree Days 9 5  
Month to date cooling degree days 101 56  
Year to date cooling degree days 124 73  
Since 1 June cooling degree days 101 56  
Growing Degree Days 24 (Base 50)    
Moisture  
Dew Point 27 °F    
Average Humidity 23    
Maximum Humidity 38    
Minimum Humidity 7    
Precipitation  
Precipitation 0.00 in 0.03 in 0.44 in (1999)
Month to date precipitation 0.00 0.38  
Year to date precipitation 1.56 4.68  
Sea Level Pressure  
Sea Level Pressure 29.80 in    
Wind  
Wind Speed 8 mph (SW)    
Max Wind Speed 21 mph    
Max Gust Speed 24 mph    
Visibility 10 miles    
Events      
T = Trace of Precipitation, MM = Missing Value Source: NWS Daily Summary

Daily Weather History Graph

Daily Weather History Graph

Search for Another Location

Airport or City:

Trip Planner

Search our weather history database for the weather conditions in past years. The results will help you decide how hot, cold, wet, or windy it might be!

Date:

Astronomy

Jun. 17, 2012 Rise Set
Actual Time 5:47 AM MDT 8:38 PM MDT
Civil Twilight 5:15 AM MDT 9:10 PM MDT
Nautical Twilight 4:35 AM MDT 9:50 PM MDT
Astronomical Twilight 3:49 AM MDT 10:35 PM MDT
Moon 4:17 AM MDT (6/17) 7:09 PM MDT (6/17)
Length of Visible Light 15h 54m
Length of Day
14h 51m
Waning Crescent, 3% of the Moon is Illuminated
Jun 17
Waning Crescent
Jun 19
New
Jun 26
First Quarter
Jul 3
Full
Jul 10
Last Quarter

Hourly Weather History & Observations

Time (MDT) Temp. Dew Point Humidity Pressure Visibility Wind Dir Wind Speed Gust Speed Precip Events Conditions
12:53 AM 64.0 °F 28.9 °F 27% 29.89 in 10.0 mi SE 11.5 mph - N/A   Clear
1:53 AM 64.0 °F 28.0 °F 26% 29.88 in 10.0 mi SE 11.5 mph - N/A   Clear
2:53 AM 63.0 °F 28.0 °F 27% 29.87 in 10.0 mi SE 11.5 mph - N/A   Clear
3:53 AM 57.9 °F 28.9 °F 33% 29.90 in 10.0 mi SSE 3.5 mph - N/A   Clear
4:53 AM 55.9 °F 30.9 °F 39% 29.91 in 10.0 mi South 5.8 mph - N/A   Clear
5:53 AM 55.0 °F 30.0 °F 38% 29.90 in 10.0 mi SE 9.2 mph - N/A   Clear
6:53 AM 61.0 °F 28.0 °F 29% 29.89 in 10.0 mi SE 9.2 mph - N/A   Clear
7:53 AM 68.0 °F 30.9 °F 25% 29.88 in 10.0 mi Calm Calm - N/A   Clear
8:53 AM 71.1 °F 33.1 °F 25% 29.91 in 10.0 mi North 3.5 mph - N/A   Clear
9:53 AM 75.0 °F 33.1 °F 22% 29.91 in 10.0 mi North 5.8 mph - N/A   Clear
10:53 AM 84.0 °F 28.0 °F 13% 29.88 in 10.0 mi Calm Calm - N/A   Clear
11:53 AM 89.1 °F 26.1 °F 10% 29.85 in 10.0 mi North 10.4 mph - N/A   Clear
12:53 PM 90.0 °F 24.1 °F 9% 29.83 in 10.0 mi NNW 10.4 mph 20.7 mph N/A   Clear
1:53 PM 91.0 °F 24.1 °F 9% 29.79 in 10.0 mi NNW 13.8 mph 18.4 mph N/A   Clear
2:53 PM 91.0 °F 21.0 °F 8% 29.76 in 10.0 mi West 10.4 mph - N/A   Clear
3:53 PM 91.9 °F 21.9 °F 8% 29.75 in 10.0 mi West 17.3 mph 23.0 mph N/A   Clear
4:53 PM 93.0 °F 19.9 °F 7% 29.72 in 10.0 mi WNW 11.5 mph 21.9 mph N/A   Clear
5:53 PM 93.0 °F 21.0 °F 7% 29.71 in 10.0 mi WNW 13.8 mph - N/A   Clear
6:53 PM 91.9 °F 21.9 °F 8% 29.67 in 10.0 mi WNW 12.7 mph - N/A   Clear
7:53 PM 88.0 °F 27.0 °F 11% 29.66 in 10.0 mi WNW 6.9 mph - N/A   Clear
8:53 PM 82.0 °F 27.0 °F 13% 29.67 in 10.0 mi SW 3.5 mph - N/A   Clear
9:53 PM 75.9 °F 26.1 °F 16% 29.68 in 10.0 mi South 5.8 mph - N/A   Clear
10:53 PM 70.0 °F 26.1 °F 19% 29.68 in 10.0 mi ESE 6.9 mph - N/A   Clear
11:53 PM 69.1 °F 26.1 °F 20% 29.67 in 10.0 mi SE 9.2 mph - N/A   Clear